FREGAT DEB, 45635

Orbit data source: Space-Track

FREGAT DEB, 45635 is space debris in LEO originally from a launch on Mon, 18 Jul 2011 UTC launched from the Tyuratam Missile And Space Complex (TTMTR). Debris objects in space refer to the collection of defunct objects orbiting the Earth. Examples of debris include non-operational satellites, rocket bodies, and fragments generated from explosions, collisions, or faulty payload assembly.

Loading next visibility...
Identifier
45635, 2011-037AB
Orbit
LEO
Last TLE update
1 day ago
Origin
Manufacturer
Lavochkin
Mission
Spacecraft
Bus & Motor
Unknown
Mass
Unknown
Launch date (UTC)
2011-07-18 (14 years ago)
Launch vehicle
Unknown
Launch site
Tyuratam Missile And Space Complex (TTMTR)
Object type
Payload
Rocket body
Debris
Shape & HBR
Unknown
Radar Cross Section
Small (<0.1 m²)

Expand to show TLE details & history

TLE from 1 day ago
0 FREGAT DEB
1 45635U 11037AB  25127.91317705  .00059683  00000-0  10559-1 0  9997
2 45635  51.2805 337.9912 1108008   8.8969 352.9885 12.90841854207313
Epoch: 2025-05-07T21:54Z
Definitive object data (Epoch: 2025-05-07T21:54:58.497Z)
Latitude
-0°
Longitude
143.25625°
Altitude
456.317 km
Speed
8.048 km/s
True Right ascension
22h 31m 57s
True Declination
0° 00' 00"
Sunlit
Object was in daylight at TLE epoch
Visualization TLE readout
Latitude
-26.29492°
Longitude
-18.07173°
Altitude
2,078.398 km
Speed
6.512 km/s
Apparent Right ascension
09h 06m 28s
Apparent Declination
-55° 24' 01"
Sunlit
Object is in full shadow
Visualization observer readout
Local Sidereal Time
14:46:30
Azimuth
220.47° SW
Elevation
-29.36°
Doppler factor
1
Orbital elements
Apogee altitude
2,149.296 km
Perigee altitude
448.098 km
Semi-major axis
7,676.834 km
Eccentricity
0.1108008
Inclination
51.2805°
RAAN
337.9912°
Arg. of periapsis
8.8969°
True anomaly
351.19378°
Mean anomaly
352.9885°
Eccentric anomaly
352.11791°
Mean motion
3.22678 °/min
BSTAR
0.010559
Orbital period
111.57 mins
Loading maneuver chart data...
Loading SW <> Apogee altitude chart data...
Loading historical data...
Loading historical data...
Loading historical data...
Loading historical data...
Loading historical data...
Loading historical data...
Loading historical data...

FREGAT DEB Visibility forecast

Observer location: undefined°, undefined°

Span
Click to sort rows by Start time (UTC) header in descending order
Start Az.
Max El. time (UTC)
Max El. Az.
Max El.
End time (UTC)
End Az.
7 mins2025-05-09 16:51:38.951Z241.129° WSW2025-05-09 16:53:38.951Z354.74° N44.457°2025-05-09 16:58:38.951Z52.406° ENE
9 mins2025-05-09 18:47:38.951Z300.19° NW2025-05-09 18:50:38.951Z348.725° N26.918°2025-05-09 18:56:38.951Z52.277° ENE
12 mins2025-05-09 20:44:38.951Z318.143° NNW2025-05-09 20:48:38.951Z9.533° NNE30.971°2025-05-09 20:56:38.951Z80.331° E
17 mins2025-05-09 22:40:38.951Z309° NW2025-05-09 22:46:38.951Z15.632° NNE44.465°2025-05-09 22:57:38.951Z122.789° SE
17 mins2025-05-10 00:37:38.951Z286.777° WNW2025-05-10 00:44:38.951Z222.9° SW32.283°2025-05-10 00:54:38.951Z166.882° S
|